Zurück zum Katalog

STARLINK-4581

AktivKommunikationVLEO
NORAD 53576·PAYLOAD·🇺🇸 United States

Gestartet Aug 19, 2022 von Cape Canaveral Space Force Station

Loading…

Nächste Überflüge (nächste 24 Stunden)

TLE

AktuellSource: CelesTrak SupGP

Epoche: Sep 14, 2026, 21:13 UTC

1 53576C 22101BB  26257.88451389  .00027294  00000+0  87791-3 0  2575
2 53576  53.1558 275.9831 0001170  81.7527 287.2956 15.31681189    12

Verfolge STARLINK-4581 in Echtzeit mit AllMySat

Download on the App Store